Location: McFarlands Corners
(41.4117°N, 81.3382°W)
Time: 13:58:14
(UTC+00:00)

Courier 1B Rocket - Pass Details

Date: 22 February 2026
Orbit: 920 x 1201 km, 28.2° (Epoch: 10 March)

Event Time Altitude Azimuth Distance (km) Brightness Sun altitude
Rises 01:41:31 0° 250° (WSW) 3,545 8.7 -29.6°
Reaches altitude 10° 01:44:37 10° 236° (WSW) 2,610 7.7 -30.2°
Enters shadow 01:48:34 23° 198° (SSW) 1,886 6.5 -30.9°
Maximum altitude 01:49:24 23° 186° (S) 1,863 - -31.0°
Drops below altitude 10° 01:54:19 10° 136° (SE) 2,688 - -31.9°
Sets 01:57:34 0° 122° (ESE) 3,677 - -32.5°
